#timestamp,LO_Frequency,Hit 
1504969215.7,286047004.4,N
1504969235.5,286047002.5,N
1504969255.3,286047001.6,N
1504969275.2,286047003.9,N
1504969295.9,286047003.4,N
1504969315.7,286047000.5,N
1504969335.5,286046999.8,N
1504969355.4,286047001.3,N
1504969375.2,286047004.1,N
1504969395.0,286047001.3,N
1504969395.9,286047001.3,N
1504969415.8,286047001.9,N
1504969435.6,286047001.5,N
1504969455.4,286047003.5,N
1504969475.3,286047001.7,N
1504969495.1,286047004.4,N
1504969496.0,286047004.4,N
1504969515.8,286047003.0,N
1504969535.7,286047003.2,N
1504969555.5,286047002.6,N
1504969575.3,286047003.6,N
1504969595.2,286047003.8,N
1504969615.9,286047005.4,P
1504969635.7,286047000.4,N
1504969655.6,286047002.2,N
1504969675.4,286047000.2,N
1504969695.2,286046999.8,N
1504969715.1,286046998.3,N
1504969716.0,286046998.3,N
1504969735.8,286046999.2,N
1504969755.6,286046999.7,N
1504969775.5,286047000.5,N
1504969795.3,286047000.1,N
1504969815.1,286047002.2,N
1504969835.8,286047001.5,N
1504969855.7,286047002.5,N
1504969875.5,286046999.2,N
1504969895.3,286046997.1,N
1504969915.2,286046995.1,N
1504969935.9,286046993.5,N
1504969955.7,286046997.9,N
1504969975.6,286046993.3,N
1504969995.4,286046990.3,P
1504970015.2,286046993.5,N
1504970035.1,286046991.9,N
1504970036.0,286046991.9,N
1504970055.8,286046993.5,N
1504970075.6,286046996.9,N
1504970095.5,286046995.8,N
1504970115.3,286046996.3,N
1504970135.1,286046995.2,N
1504970155.9,286046993.9,N
1504970175.7,286046995.8,N
1504970195.5,286046996.1,N
1504970215.3,286046994.3,N
1504970235.2,286046995.2,N
1504970255.0,286046997.8,N
1504970255.9,286046997.8,N
1504970275.7,286046997.8,N
1504970295.6,286046999.4,N
1504970315.4,286046997.1,N
1504970335.2,286047000.8,N
1504970355.1,286046998.1,N
1504970356.0,286046998.1,N
1504970375.8,286046998.8,N
1504970395.6,286046998.7,N
1504970415.5,286047001.0,N
1504970435.3,286047000.6,N
1504970455.1,286046998.4,N
1504970475.9,286046993.3,N
1504970495.7,286046996.0,N
1504970515.5,286046993.9,N
1504970535.3,286046995.9,N
1504970555.2,286046996.1,N
1504970575.0,286046995.3,N
1504970575.9,286046995.3,N
1504970595.7,286046996.1,N
1504970615.6,286046997.2,N
1504970635.4,286047000.8,N
1504970655.2,286046998.5,N
1504970675.1,286047000.4,N
1504970676.0,286047000.4,N
1504970695.8,286046994.9,N
1504970715.6,286046994.7,N
1504970735.5,286046993.2,P
1504970755.3,286046994.1,N
1504970775.1,286046992.3,P
1504970795.9,286046995.2,N
1504970815.7,286046996.9,N
1504970835.5,286046995.6,N
1504970855.4,286046999.6,N
1504970875.2,286046998.8,N
1504970895.0,286046998.2,N
1504970895.9,286046998.2,N
1504970915.8,286046999.9,N
1504970935.6,286047002.8,N
1504970955.4,286047001.1,N
1504970975.2,286047000.4,N
1504970995.1,286046996.9,N
1504970996.0,286046996.9,N
1504971015.8,286046997.5,N
1504971035.6,286046996.0,N
1504971055.5,286046994.2,N
1504971075.3,286046992.9,N
1504971095.1,286046990.6,P
1504971115.9,286046996.7,N
1504971135.7,286047000.8,N
1504971155.5,286047001.4,N
1504971175.4,286047003.9,N
1504971195.2,286047005.5,N
1504971215.0,286047002.9,N
1504971215.9,286047002.9,N
1504971235.8,286047003.0,N
1504971255.6,286047000.2,N
1504971275.4,286046998.4,N
1504971295.3,286046999.7,N
1504971315.1,286047002.1,N
1504971316.0,286047002.1,N
1504971335.8,286047002.8,N
1504971355.7,286047002.6,N
1504971375.5,286047003.8,N
1504971395.3,286046999.7,N
1504971415.1,286047000.7,N
1504971435.9,286047002.0,N
1504971455.7,286046998.9,N
1504971475.5,286046997.1,N
1504971495.4,286046998.5,N
1504971515.2,286046999.9,N
1504971535.0,286047004.4,N
1504971535.9,286047004.4,N
1504971555.8,286047003.7,N
1504971575.6,286047002.8,N
1504971595.4,286047002.2,N
1504971615.3,286047001.5,N
1504971635.1,286047000.2,N
1504971636.0,286047000.2,N
1504971655.8,286047001.7,N
1504971675.7,286047001.6,N
1504971695.5,286046999.9,N
1504971715.3,286047001.9,N
1504971735.1,286047001.9,N
1504971755.9,286047004.4,N
1504971775.7,286046998.6,N
1504971795.5,286047001.1,N
1504971815.4,286047002.2,N
1504971835.2,286047002.2,N
1504971855.0,286047000.2,N
1504971855.9,286047000.2,N
1504971875.8,286047000.3,N
1504971895.6,286047000.0,N
1504971915.4,286046998.9,N
1504971935.3,286046998.6,N
1504971955.1,286047000.5,N
1504971956.0,286047000.5,N
1504971975.8,286047002.4,N
1504971995.7,286047000.5,N
1504972015.5,286046998.9,N
1504972035.3,286047000.6,N
1504972055.2,286047000.2,N
1504972075.9,286046999.0,N
1504972095.7,286046998.5,N
1504972115.6,286047001.2,N
1504972135.4,286046999.8,N
1504972155.2,286047002.7,N
1504972175.0,286046997.2,N
1504972176.0,286046997.2,N
1504972195.8,286046992.5,P
1504972215.6,286046990.3,N
1504972235.5,286046991.3,N
1504972255.3,286046992.2,N
1504972275.1,286046992.0,N
1504972295.9,286046991.4,N
1504972315.7,286046992.8,N
1504972335.5,286046995.1,N
1504972355.3,286046997.4,N
1504972375.2,286046997.0,N
1504972395.0,286046996.6,N
1504972395.9,286046996.6,N
1504972415.7,286046997.8,N
1504972435.6,286046999.6,N
1504972455.4,286046997.5,N
1504972475.2,286046995.6,N
1504972495.1,286046997.7,N
1504972496.0,286046997.7,N
1504972515.8,286046997.3,N
1504972535.6,286046999.5,N
1504972555.5,286046999.2,N
1504972575.3,286046997.0,N
1504972595.1,286046998.7,N
1504972615.9,286047000.5,N
1504972635.7,286046999.0,N
1504972655.5,286046997.4,N
1504972675.3,286046998.2,N
1504972695.2,286046993.8,N
1504972715.0,286046997.7,N
1504972715.9,286046997.7,N
1504972735.7,286046998.4,N
1504972755.6,286046999.3,N
1504972775.4,286046995.4,N
1504972795.2,286046997.7,N
